User: anonymous   Login
Location: The Top Of The Sky Mini Observatory
(41.4300°N, 81.2300°W)
Time: 09:28:14
(UTC-05:00)
Language:

Iridium 86 - Orbit

View from above orbital plane
View from above orbital plane
View from above satellite
View from above satellite

Ground track
Ground track

The orbit data is extracted from the following two-line orbital elements,

1 25528U 98066B   14352.51777468  .00000417  00000-0  14180-3 0  2757
2 25528 086.3942 010.9468 0002470 107.1661 252.9805 14.34218234848697
Epoch (UTC): 18 December 2014 12:25:35
Eccentricity: 0.0002470
inclination: 86.3942°
perigee height: 776 km
apogee height: 779 km
right ascension of ascending node: 10.9468°
argument of perigee: 107.1661°
revolutions per day: 14.34218234
mean anomaly at epoch: 252.9805°
orbit number at epoch: 84869

The dashed part of the orbit path shows where the satellite is in the earth's shadow,  

DLR